Vero Beach, FL

9:19 PM EDT on April 23, 2018 (GMT -0400)
Vero Beach Municipal

Weather History for KVRB - October, 2011

Change the Weather History Date:

Sunday, October 9, 2011

  Actual Average Record
Temperature  
Mean Temperature 76 °F 78 °F  
Max Temperature 81 °F 85 °F 92 °F (1950)
Min Temperature 71 °F 71 °F 58 °F (1972)
Degree Days  
Heating Degree Days 0 0  
Month to date heating degree days 0 0  
Since 1 July heating degree days 0 0  
Cooling Degree Days 11 13  
Month to date cooling degree days 102 123  
Year to date cooling degree days 3138 2890  
Growing Degree Days 26 (Base 50)    
Moisture  
Dew Point 70 °F    
Average Humidity 80    
Maximum Humidity 90    
Minimum Humidity 69    
Precipitation  
Precipitation 0.73 in 0.20 in 1.87 in (1989)
Month to date precipitation 11.86 1.81  
Year to date precipitation 48.44 43.30  
Sea Level Pressure  
Sea Level Pressure 29.84 in    
Wind  
Wind Speed 20 mph (ENE)    
Max Wind Speed 36 mph    
Max Gust Speed 52 mph    
Visibility 7 miles    
Events Rain    
T = Trace of Precipitation, MM = Missing Value Source: NWS Daily Summary

Daily Weather History Graph

Daily Weather History Graph

Search for Another Location

Airport or City:

Astronomy

Oct. 09, 2011 Rise Set
Actual Time 7:18 AM EDT 6:59 PM EDT
Civil Twilight 6:54 AM EDT 7:22 PM EDT
Nautical Twilight 6:27 AM EDT 7:49 PM EDT
Astronomical Twilight 6:00 AM EDT 8:16 PM EDT
Moon 5:29 PM EDT (10/9) 5:10 AM EDT (10/9)
Length of Visible Light 12h 27m
Length of Day
11h 40m
Waxing Gibbous, 95% of the Moon is Illuminated
Oct 9
Waxing Gibbous
Oct 11
Full
Oct 19
Last Quarter
Oct 26
New
Nov 2
First Quarter

Hourly Weather History & Observations

Time (EDT) Temp. Heat Index Dew Point Humidity Pressure Visibility Wind Dir Wind Speed Gust Speed Precip Events Conditions
12:53 AM 78.1 °F - 66.9 °F 68% 29.94 in 10.0 mi East 21.9 mph 31.1 mph 0.03 in   Overcast
1:53 AM 78.1 °F - 68.0 °F 71% 29.92 in 9.0 mi ENE 17.3 mph 32.2 mph 0.00 in   Overcast
2:53 AM 79.0 °F - 68.0 °F 69% 29.90 in 10.0 mi East 21.9 mph 28.8 mph N/A   Overcast
3:38 AM 73.4 °F - 69.8 °F 88% 29.90 in 2.0 mi East 17.3 mph 36.8 mph 0.05 in Rain Light Rain
3:45 AM 73.4 °F - 71.6 °F 94% 29.90 in 1.5 mi East 17.3 mph 25.3 mph 0.21 in Rain Heavy Rain
3:53 AM 73.9 °F - 71.1 °F 91% 29.89 in 4.0 mi ENE 18.4 mph 24.2 mph 0.23 in Rain Light Rain
4:06 AM 75.2 °F - 71.6 °F 89% 29.87 in 6.0 mi East 8.1 mph 20.7 mph 0.00 in Rain Light Rain
4:16 AM 75.2 °F - 71.6 °F 89% 29.88 in 2.5 mi East 18.4 mph 26.5 mph 0.07 in Rain Rain
4:21 AM 75.2 °F - 69.8 °F 83% 29.88 in 3.0 mi East 17.3 mph 29.9 mph 0.08 in Rain Light Rain
4:31 AM 73.4 °F - 69.8 °F 88% 29.88 in 5.0 mi East 18.4 mph 32.2 mph 0.09 in Rain Light Rain
4:43 AM 75.2 °F - 69.8 °F 83% 29.87 in 10.0 mi ENE 19.6 mph 28.8 mph 0.09 in   Overcast
4:53 AM 75.9 °F - 72.0 °F 87% 29.86 in 8.0 mi ENE 13.8 mph 25.3 mph 0.09 in   Overcast
5:40 AM 75.2 °F - 71.6 °F 89% 29.86 in 7.0 mi ENE 19.6 mph 33.4 mph 0.00 in Rain Light Rain
5:53 AM 75.9 °F - 72.0 °F 87% 29.87 in 7.0 mi ENE 18.4 mph 26.5 mph 0.00 in   Overcast
6:53 AM 78.1 °F - 69.1 °F 74% 29.87 in 10.0 mi East 15.0 mph 31.1 mph 0.00 in   Overcast
7:38 AM 75.2 °F - 71.6 °F 89% 29.87 in 2.0 mi East 15.0 mph 33.4 mph 0.04 in Rain Rain
7:50 AM 75.2 °F - 71.6 °F 89% 29.88 in 0.8 mi East 24.2 mph 32.2 mph 0.19 in Rain Heavy Rain
7:53 AM 75.0 °F - 72.0 °F 90% 29.88 in 0.8 mi East 27.6 mph 40.3 mph 0.29 in Rain Heavy Rain
8:03 AM 75.2 °F - 71.6 °F 89% 29.87 in 1.5 mi East 19.6 mph 28.8 mph 0.04 in Rain Heavy Rain
8:18 AM 75.2 °F - 71.6 °F 89% 29.87 in 2.5 mi East 21.9 mph 31.1 mph 0.11 in Rain Light Rain
8:25 AM 77.0 °F - 71.6 °F 83% 29.87 in 5.0 mi East 20.7 mph 31.1 mph 0.12 in Rain Light Rain
8:53 AM 78.8 °F - 69.8 °F 74% 29.89 in 8.0 mi East 19.6 mph 29.9 mph N/A   Overcast
9:14 AM 78.8 °F - 69.8 °F 74% 29.90 in 8.0 mi East 21.9 mph 32.2 mph N/A   Overcast
9:24 AM 78.8 °F - 69.8 °F 74% 29.90 in 10.0 mi East 20.7 mph 33.4 mph N/A   Mostly Cloudy
9:53 AM 78.1 °F - 70.0 °F 76% 29.89 in 9.0 mi ENE 16.1 mph 26.5 mph N/A   Mostly Cloudy
10:53 AM 80.1 °F 83.2 °F 70.0 °F 71% 29.90 in 8.0 mi ENE 18.4 mph 31.1 mph N/A   Overcast
11:00 AM 80.6 °F 83.9 °F 69.8 °F 70% 29.89 in 9.0 mi East 17.3 mph 26.5 mph N/A   Overcast
11:21 AM 80.6 °F 84.6 °F 71.6 °F 74% 29.89 in 8.0 mi ENE 17.3 mph 31.1 mph N/A   Overcast
11:53 AM 80.1 °F 83.2 °F 70.0 °F 71% 29.89 in 8.0 mi ENE 17.3 mph 26.5 mph 0.00 in   Overcast
12:53 PM 77.0 °F - 70.0 °F 79% 29.86 in 6.0 mi ENE 18.4 mph 28.8 mph N/A   Haze
1:18 PM 78.8 °F - 69.8 °F 74% 29.85 in 9.0 mi ENE 23.0 mph 35.7 mph N/A   Overcast
1:53 PM 78.1 °F - 69.1 °F 74% 29.83 in 9.0 mi NE 19.6 mph 39.1 mph 0.00 in   Overcast
2:07 PM 78.8 °F - 69.8 °F 74% 29.82 in 8.0 mi NE 26.5 mph 39.1 mph 0.00 in Rain Light Rain
2:53 PM 77.0 °F - 69.1 °F 76% 29.81 in 9.0 mi ENE 29.9 mph 42.6 mph 0.00 in Rain Light Rain
3:53 PM 75.0 °F - 68.0 °F 79% 29.78 in 8.0 mi NE 23.0 mph 38.0 mph 0.00 in Rain Light Rain
4:53 PM 73.9 °F - 68.0 °F 82% 29.74 in 7.0 mi NNE 23.0 mph 40.3 mph 0.00 in Rain Light Rain
5:00 PM 75.2 °F - 69.8 °F 83% 29.74 in 7.0 mi NNE 21.9 mph 39.1 mph 0.00 in Rain Light Rain
5:53 PM 73.0 °F - 66.0 °F 79% 29.70 in 6.0 mi North 25.3 mph 41.4 mph 0.00 in Rain Light Rain
6:53 PM 75.0 °F - 66.0 °F 73% 29.67 in 8.0 mi North 25.3 mph 48.3 mph 0.00 in Rain Light Rain
7:53 PM 75.0 °F - 64.9 °F 71% 29.69 in 10.0 mi NNW 29.9 mph 41.4 mph 0.00 in   Clear
8:53 PM 72.0 °F - 66.0 °F 81% 29.74 in 10.0 mi NW 23.0 mph 38.0 mph N/A   Scattered Clouds
9:53 PM 72.0 °F - 68.0 °F 87% 29.75 in 10.0 mi West 13.8 mph - N/A   Partly Cloudy
10:13 PM 73.4 °F - 68.0 °F 83% 29.76 in 10.0 mi West 13.8 mph - N/A   Mostly Cloudy
10:53 PM 73.0 °F - 68.0 °F 84% 29.74 in 10.0 mi West 15.0 mph - N/A   Mostly Cloudy
11:04 PM 73.4 °F - 68.0 °F 83% 29.75 in 10.0 mi West 12.7 mph - N/A   Scattered Clouds
11:53 PM 72.0 °F - 68.0 °F 87% 29.76 in 10.0 mi SW 10.4 mph - N/A   Mostly Cloudy